SCP
0 0 0 0 0 0 0 0 0 0 0 0 0 0 0 0 0 0 0 0 0 0 0 0 0 0 0 0 0 0 0 0 0 0 0 0 0 0 0 0 0 0 0 0
0 0 0 0 0 0 0 0 0 0 0 0 0 0 0 0 0 0 0 0 0 0 0 0 0 0 0 0 0 0 0 0 0 0 0 0 0 0 0 0 0 0 0 0
0 0 0 0 0 0 0 0 0 0 0 0 0 0 0 0 0 0 0 0 0 0 0 0 0 0 0 0 0 0 0 0 0 0 0 0 0 0 0 0 0 0 0 0
0 0 0 0 0 0 0 0 0 0 0 0 0 0 0 0 0 0 0 0 0 0 0 0 0 0 0 0 0 0 0 0 0 0 0 0 0 0 0 0 0 0 0 0
0 0 0 0 0 0 0 0 0 0 0 0 0 0 0 0 0 0 0 0 0 0 0 0 0 0 0 0 0 0 0 0 0 0 0 0 0 0 0 0 0 0 0 0
0 0 0 0 0 0 0 0 0 0 0 0 0 0 0 0 0 0 0 0 0 0 0 0 0 0 0 0 0 0 0 0 0 0 0 0 0 0 0 0 0 0 0 0
0 0 0 0 0 0 0 0 0 0 0 0 0 0 0 0 0 0 0 0 0 0 0 0 0 0 0 0 0 0 0 0 0 0 0 0 0 0 0 0 0 0 0 0
0 0 0 0 0 0 0 0 0 -0 0 0 0 0 0 0 0 0 0 0 0 0 0 0 0 0 0 0 0 0 0 0 0 0 0 0 0 0 0 0 0 0 0 0
0 0 0 0 0 0 0 -0 -0 -0 -0 0 0 0 0 0 0 0 0 0 0 0 0 0 0 0 0 0 0 0 0 0 0 0 0 0 0 0 0 0 0 0 0 0
0 0 0 0 0 0 0 0 0 -0 -0 -0 0 0 0 0 0 0 0 0 0 0 0 0 0 0 0 0 0 0 0 0 0 0 0 0 0 0 0 0 0 0 0 0
0 0 0 0 -0 0 0 0 0 -0 -0 -0 -0 0 0 0 0 0 0 0 0 0 0 0 0 0 0 0 0 0 0 0 0 0 0 0 0 0 0 0 0 0 0 0
0 0 0 0 0 0 0 0 0 -0 -0 -0 -0 0 0 0 0 0 0 0 0 0 0 0 0 0 0 0 0 0 0 0 0 0 0 0 0 -0 0 0 0 0 0 0
0 0 0 0 0 0 0 0 0 0 -0 -0 -0 -0 0 0 0 0 0 0 0 0 0 0 0 0 0 0 0 0 0 0 0 0 0 0 0 0 0 0 0 0 0 0
0 0 0 0 0 0 0 0 0 0 -0 -0 -0 -0 -0 0 0 0 0 0 0 0 0 0 0 0 0 0 0 0 0 0 0 0 0 0 0 0 0 0 0 0 0 0
0 0 0 0 0 0 0 0 0 0 -0 0 -0 -0 -0 0 0 0 0 0 0 0 0 0 0 0 0 0 0 0 0 0 0 0 0 0 0 0 0 0 0 0 0 0
0 0 0 0 0 0 0 0 0 0 0 0 0 -0 -0 -0 0 0 0 0 0 0 0 0 0 0 0 0 0 0 0 0 0 0 0 0 0 0 0 0 0 0 0 0
0 0 0 0 0 0 0 0 0 0 0 0 0 0 -0 -0 0 0 0 0 0 0 0 0 0 0 0 0 0 0 0 0 0 0 0 0 0 0 0 0 0 0 0 0
0 0 0 -0 0 -0 0 0 0 0 0 0 0 0 0 0 -0 -0 0 0 0 0 0 0 0 0 0 0 0 0 0 0 0 0 0 0 0 0 0 0 0 0 0 0
0 0 0 0 0 -0 -0 -0 0 0 0 0 0 0 0 0 0 0 0 0 0 0 0 0 0 0 0 0 0 0 0 0 0 0 0 0 0 0 0 0 0 0 0 0
0 0 0 0 0 -0 -0 -0 -0 -0 -0 -0 0 0 0 0 0 0 0 0 0 0 0 0 0 0 0 0 0 0 0 0 0 0 0 0 0 0 0 0 0 0 0 0
0 0 0 0 0 -0 -0 -0 -0 -0 -0 -0 -0 0 0 0 0 0 0 0 0 0 0 0 0 0 0 0 0 0 0 0 0 0 0 0 0 0 0 0 0 0 0 0
0 0 0 0 0 -0 -0 -0 -0 -0 -0 -0 -0 0 0 0 0 0 0 0 0 0 0 0 0 0 0 0 0 0 0 0 0 0 0 0 0 0 0 0 0 0 0 0
0 0 0 0 0 -0 -0 -0 -0 0 0 0 0 0 0 0 0 0 0 0 0 0 0 0 0 0 0 0 0 0 0 0 0 0 0 0 0 0 0 0 0 0 0 0
0 0 0 0 0 0 0 0 0 0 0 0 0 0 0 0 0 0 0 0 0 0 0 0 0 0 0 0 0 0 0 0 0 0 0 0 0 0 0 0 0 0 0 0
0 0 0 0 0 0 0 0 0 0 0 0 0 0 0 0 0 0 0 0 0 0 0 0 0 0 0 0 0 0 0 0 0 0 0 0 0 0 0 0 0 0 0 0
0 0 0 0 0 0 0 0 0 0 0 0 0 0 0 0 0 0 0 0 0 0 0 0 0 0 0 0 0 0 0 0 0 0 0 0 0 0 0 0 0 0 0 0
-0 0 0 0 0 0 0 0 0 0 0 0 0 0 0 0 0 0 0 0 0 0 0 0 0 0 0 0 0 0 0 0 0 0 0 0 0 0 0 0 0 0 0 0
Wind_Speed
4 4 3 3 4 4 5 7 7 8 8 9 7 6 4 3 2 1 2 2 2 2 1 1 1 1 1 2 2 3 3 3 3 2 2 2 1 1 1 1 1 1 1 1
2 2 2 3 5 5 6 5 6 6 9 7 4 2 2 3 3 4 4 4 3 3 2 2 2 2 1 2 2 3 3 3 2 2 2 2 2 1 1 1 1 2 2 2
3 3 2 5 6 6 5 5 6 8 9 3 2 4 5 5 4 5 5 4 4 4 4 4 3 3 3 2 2 3 3 3 2 3 2 2 2 2 2 1 2 2 1 1
1 1 5 7 2 4 5 5 5 4 4 4 5 4 3 4 4 4 4 4 4 4 3 3 2 2 2 2 2 3 2 2 2 3 3 2 2 2 2 2 2 1 0 0
3 2 7 7 3 3 3 5 4 5 4 3 1 2 3 3 3 4 4 3 4 4 3 3 3 3 3 2 2 2 2 2 2 3 3 3 2 2 2 2 1 1 1 1
3 3 6 7 3 1 2 5 3 3 4 2 2 0 5 3 1 2 1 1 2 2 3 3 3 3 4 3 2 2 2 2 2 3 3 3 3 2 1 2 1 1 1 0
4 5 8 7 3 3 2 7 3 4 4 4 4 4 3 1 0 1 1 1 2 3 3 3 3 4 3 3 3 3 1 1 1 2 3 3 2 2 2 2 2 1 1 1
4 4 9 4 4 6 7 3 2 3 4 4 3 2 1 0 0 1 1 2 2 3 2 2 3 4 3 3 3 1 2 2 1 1 2 2 2 2 2 2 2 1 0 1
8 8 6 4 6 5 3 3 3 3 3 3 2 2 1 1 0 1 1 1 2 3 2 1 2 3 4 2 2 3 2 2 1 1 1 2 2 3 2 2 2 1 1 1
4 7 6 5 5 4 4 5 4 4 4 4 3 3 2 1 1 1 1 2 2 3 2 1 1 2 2 2 2 3 2 1 1 1 1 0 1 2 3 3 2 2 2 2
6 7 5 5 6 5 4 3 3 2 3 4 4 3 3 3 2 2 1 1 2 3 3 2 1 1 1 2 3 3 2 2 1 1 1 1 0 1 2 3 4 4 3 3
8 8 6 7 5 4 4 5 5 4 2 2 4 4 3 3 2 2 2 1 2 2 2 2 2 1 1 2 4 3 2 1 1 1 1 1 1 1 2 2 2 3 3 2
7 5 5 6 4 4 5 5 5 5 5 4 3 4 4 2 2 2 1 2 2 2 2 2 2 1 1 2 3 3 3 2 1 1 1 1 1 1 1 2 2 2 2 3
6 3 4 5 5 5 4 4 3 3 3 4 3 3 3 2 2 2 2 2 2 2 2 2 2 1 1 2 3 3 2 3 2 2 2 2 2 2 2 2 2 2 3 3
7 7 7 5 3 3 3 3 3 3 3 3 3 4 4 4 4 3 2 2 2 2 2 2 2 1 1 2 2 2 2 2 2 1 1 2 1 1 1 2 2 2 1 2
5 4 4 5 5 5 4 4 5 5 4 4 4 4 4 4 3 3 2 3 4 3 3 2 2 2 2 2 2 2 1 2 2 1 1 1 1 1 1 2 2 2 2 2
4 5 5 5 7 6 6 7 7 6 5 5 5 4 4 4 3 3 3 3 3 3 3 3 3 2 2 2 2 1 1 1 1 1 1 1 2 2 2 2 2 2 3 3
7 7 7 7 7 7 6 6 6 6 6 6 5 5 5 5 5 5 4 3 2 1 2 3 2 2 2 2 2 2 1 1 1 1 1 1 1 1 1 2 2 3 2 2
5 5 5 5 6 6 6 6 6 6 5 5 6 6 6 6 5 4 4 4 3 3 3 3 3 2 2 3 2 2 2 1 1 1 1 1 1 1 1 2 2 2 2 2
3 3 3 3 3 4 5 5 5 5 5 6 6 5 5 5 4 4 4 4 4 4 3 3 3 2 3 3 3 2 2 2 2 1 1 1 1 1 2 2 2 2 2 2
2 2 2 2 3 3 4 5 5 6 5 6 7 7 6 5 5 4 4 3 3 3 3 4 3 2 2 3 3 2 2 2 2 2 1 1 2 2 2 2 2 2 2 2
2 2 2 2 2 3 3 3 5 5 5 5 6 6 5 5 5 4 4 4 3 4 3 2 2 3 3 3 2 2 2 2 2 2 2 2 2 2 2 3 3 3 3 3
2 2 2 3 3 2 2 2 4 5 6 6 7 7 6 5 5 5 4 3 3 5 3 3 4 5 5 3 2 2 2 2 2 2 3 3 3 3 3 3 3 3 3 3
2 2 2 2 1 2 2 2 3 3 4 4 5 6 5 4 3 3 3 4 5 5 3 4 5 5 4 2 2 2 3 3 3 3 3 2 3 3 3 3 3 3 4 4
2 2 1 2 2 2 3 2 2 2 2 2 3 3 3 3 4 3 3 4 5 4 2 4 5 5 3 2 3 3 3 3 3 2 3 3 3 3 3 4 4 4 4 4
2 2 2 3 3 2 2 2 2 2 3 3 2 2 2 2 3 3 3 3 4 4 2 2 3 3 2 2 3 3 3 3 3 3 3 3 4 4 4 4 5 4 4 4
1 1 1 1 1 2 2 2 3 3 3 4 3 2 3 3 3 3 3 2 2 2 2 2 2 2 3 3 3 3 3 3 3 3 3 3 3 4 4 5 4 4 4 4
Wind_Direction
229 242 219 228 232 202 200 203 209 237 240 256 251 246 244 233 218 200 211 220 203 184 187 161 149 159 159 162 153 150 148 158 178 173 155 145 140 144 121 94 83 78 63 37
281 260 234 256 252 225 227 221 227 248 261 258 252 240 237 231 211 215 217 222 212 185 176 181 183 180 164 169 172 156 159 174 173 145 136 144 146 135 110 88 77 72 65 58
260 295 341 270 237 217 221 217 203 227 247 250 250 235 228 226 218 216 217 218 206 200 198 198 198 188 180 177 158 151 158 168 166 159 155 167 150 129 133 132 102 83 61 60
200 34 239 244 237 206 216 245 225 234 256 243 234 250 256 227 213 224 221 213 211 200 195 189 177 163 152 135 139 145 145 163 169 164 166 162 150 152 156 138 125 120 99 65
146 222 272 289 259 191 208 264 234 224 252 272 25 16 302 246 221 225 224 213 202 192 182 168 160 153 137 140 142 145 160 181 185 173 169 162 169 178 170 146 140 141 151 129
144 192 243 251 257 221 140 271 257 204 225 229 107 284 270 268 219 229 231 188 167 149 140 153 161 147 143 156 159 183 198 197 187 173 170 174 184 183 168 150 150 138 97 92
178 220 256 252 253 115 176 251 255 199 201 181 201 230 257 276 243 143 121 144 140 136 151 178 163 149 155 168 199 215 191 154 149 167 173 177 167 160 151 141 120 104 86 4
164 206 253 230 141 180 223 247 230 208 199 198 226 259 271 250 154 115 96 105 131 141 158 170 159 154 166 198 208 165 132 129 135 157 181 158 150 151 149 146 138 138 130 344
191 215 241 210 208 227 210 222 230 208 208 187 188 225 250 251 180 141 144 142 139 144 143 157 164 164 180 210 161 133 122 123 115 113 142 152 155 166 166 167 172 195 201 242
245 261 259 256 259 257 228 222 222 208 195 181 192 200 205 204 206 194 175 162 143 137 143 167 182 181 182 169 139 131 137 141 128 119 91 109 160 175 179 185 192 205 216 233
248 267 288 274 244 235 229 213 196 196 187 181 175 196 207 205 209 203 191 166 156 162 168 179 170 169 157 147 136 136 149 152 134 142 156 176 211 219 213 213 207 206 214 212
229 226 213 248 249 220 208 215 204 189 189 192 186 198 195 198 208 187 167 154 152 153 155 164 154 156 151 149 146 146 148 155 160 185 188 176 194 321 317 279 264 244 241 242
230 235 228 255 262 228 217 220 213 198 190 193 199 186 178 187 192 166 154 163 179 178 167 154 145 147 165 163 156 156 166 183 186 191 196 205 216 212 279 323 319 280 267 262
241 235 254 247 241 234 219 214 198 182 186 185 189 173 163 161 157 167 189 197 183 165 155 151 150 176 194 167 161 168 174 191 190 196 207 217 222 224 222 225 275 293 285 274
246 231 230 238 233 224 200 175 173 191 189 185 174 168 166 168 180 194 195 160 142 145 161 160 167 218 196 167 166 172 179 198 202 198 203 222 225 219 217 223 236 265 293 293
253 251 228 220 225 218 200 194 196 204 192 186 184 186 183 176 175 170 160 157 159 184 198 192 210 226 193 175 176 177 192 217 199 184 187 213 228 224 224 227 235 249 260 264
221 239 234 230 227 222 217 213 205 196 191 193 196 183 165 156 155 171 181 184 186 194 196 199 218 219 189 177 174 184 185 210 205 184 204 220 222 228 232 232 240 252 258 255
229 232 226 217 218 218 217 210 200 193 195 196 180 165 168 174 186 196 192 171 158 180 224 220 210 187 180 184 179 169 167 176 181 200 219 233 243 235 234 238 246 255 271 272
244 241 238 228 217 209 206 203 200 197 192 178 174 181 188 192 192 188 169 159 175 216 240 225 203 177 188 201 178 162 161 165 181 211 212 247 276 274 258 251 254 258 266 271
255 243 232 232 220 208 211 205 191 187 186 176 174 177 185 195 187 176 168 187 214 222 214 196 185 183 196 198 182 166 172 182 189 208 219 220 234 252 259 258 257 257 263 265
255 245 227 224 233 226 212 197 183 184 183 176 179 187 193 195 184 176 174 212 239 213 193 192 183 190 192 187 176 166 177 186 192 204 216 230 244 254 256 258 263 264 263 267
262 246 236 224 217 236 224 194 184 180 177 182 187 186 181 183 184 187 205 215 213 193 184 188 189 197 196 182 172 175 186 192 201 210 220 227 236 249 254 258 260 265 265 263
269 253 243 232 221 228 216 190 184 179 183 189 190 190 191 191 186 185 213 218 192 191 186 195 202 202 193 176 177 185 195 204 212 218 226 231 235 242 250 255 258 260 262 263
271 258 251 238 179 170 206 218 192 186 186 194 198 193 183 177 195 209 200 186 187 189 194 199 199 199 186 180 183 192 205 213 219 225 231 235 240 247 252 254 258 261 262 264
268 256 230 192 193 214 214 187 164 173 177 188 194 190 186 184 188 192 177 182 187 186 195 202 199 195 187 187 193 204 211 218 222 224 230 238 244 249 254 255 255 260 262 263
269 250 234 227 223 214 193 177 186 193 184 186 197 190 178 169 164 166 173 181 184 189 191 192 193 191 194 197 203 209 213 224 236 236 237 243 248 251 255 257 259 258 260 262
283 276 271 279 260 219 195 188 194 204 199 189 191 189 178 170 167 170 174 178 181 187 193 196 194 197 202 204 208 215 220 222 226 233 238 242 247 251 253 256 258 258 259 261